IRIDIUM 33 DEB, 35806

Orbit data source: Space-Track

IRIDIUM 33 DEB, 35806 is space debris in LEO originally from a launch on Sun, 14 Sep 1997 UTC launched from the Tyuratam Missile And Space Complex (TTMTR). The debris from Iridium 33, an American commercial communications satellite, has been tracked extensively since its accidental collision with the defunct Russian satellite Cosmos 2251 in 2009. This event, occurring at high speed in low Earth orbit (LEO), generated thousands of pieces of space debris, significantly increasing the risk of further collisions. The Iridium 33 debris cloud has impacted space traffic management and orbital debris mitigation strategies, making it a subject of ongoing study in space situational awareness.

Loading next visibility...
Identifier
35806, 1997-051SQ
Orbit
LEO
Country
Flag of USUS
Related business
Manufacturer
Unknown
Mission
Spacecraft
Bus & Motor
Unknown
Mass
Unknown
Launch date (UTC)
1997-09-14 (29 years ago)
Launch vehicle
Unknown
Launch site
Tyuratam Missile And Space Complex (TTMTR)
Object type
Payload
Rocket body
Debris
Shape & HBR
Unknown shape, 0.1 m
Radar Cross Section
Small (<0.1 m²)

Expand to show TLE details & history
Last TLE update: 1 week ago

TLE from 1 week ago
0 IRIDIUM 33 DEB
1 35806U 97051SQ  26199.54412509  .00001864  00000-0  38739-3 0  9993
2 35806  86.3491 284.5425 0015061  55.9188 304.3449 14.59532540894998
Epoch: 2026-07-18T13:03Z
TLE epoch observation values (Epoch: 2026-07-18T13:03:32.407Z)
Latitude
-0.00002°
Longitude
152.30212°
Altitude
691.77 km
Speed
7.514 km/s
True Right ascension
18h 58m 10s
True Declination
0° 00' 00"
Sunlit
Object was in full shadow at epoch
Visualization orbit readout
Latitude
Unknown
Longitude
Unknown
Altitude
Unknown
Speed
Unknown
Apparent Right ascension
Unknown
Apparent Declination
Unknown
Sunlit
N/A
Visualization observer readout
Local Sidereal Time
20:00:29
Azimuth
Unknown
Elevation
Unknown
Doppler factor
Unknown
Orbital elements
Apogee altitude
702.261 km
Perigee altitude
680.966 km
Semi-major axis
7,069.751 km
Eccentricity
0.00151
Inclination
86.3491°
RAAN
284.5425°
Arg. of periapsis
55.9188°
True anomaly
304.20225°
Mean anomaly
304.3449°
Eccentric anomaly
304.27359°
Mean motion
3.65121 °/min
Orbital period
98.6 mins
BSTAR
0.00038739
Loading maneuver chart data...
Computing Atmospheric mass density...
Loading historical data...
Loading historical data...
Loading historical data...
Loading historical data...
Loading historical data...
Loading historical data...
Loading historical data...

Documentation

Showing up to 5 results
|